(°C)
21°
23°
25°
27°
28°
29°
30°
(°C)
20°
21°
23°
25°
27°
29°
30°
SV
VSV
VSV
VSV
VSV
VSV
VSV
(km/h)
12-25
14-25
16-25
17-25
16-24
16-22
15-21
(mm)
0
0
0
0
0
0
0
(%)
0
0
0
0
0
0
0

Sluneční výška

/ 21.8°
sun-icon
UV 10
06:38
20:13
Ubývající měsíc (52°)
10:15
24:00

METAR pro Tampa (KTPF)

Čas Podmínky Teplota/
Rosný bod
Vítr Viditelnost Počasí Oblaky Tlak Změna Nezpracované
VFR 21°C / 14°C 60º 9kt >10km - Broken Clouds 11000ft - KTPF 161215Z AUTO 06009KT 10SM BKN110 21/14 A3019 RMK AO2
VFR 20°C / 14°C 60º 10kt >10km - Overcast 11000ft - KTPF 161155Z AUTO 06010KT 10SM OVC110 20/14 A3018 RMK AO2
VFR 20°C / 14°C 50º 10kt >10km - Overcast 11000ft - KTPF 161135Z AUTO 05010KT 10SM OVC110 20/14 A3018 RMK AO2
VFR 19°C / 14°C 50º 8kt >10km - Overcast 11000ft - KTPF 161115Z AUTO 05008KT 10SM OVC110 19/14 A3017 RMK AO2
VFR 18°C / 14°C 50º 8kt >10km - Overcast 11000ft - KTPF 161055Z AUTO 05008KT 10SM OVC110 18/14 A3016 RMK AO2
VFR 18°C / 14°C 60º 10kt >10km - Broken Clouds 12000ft - KTPF 161035Z AUTO 06010KT 10SM BKN120 18/14 A3015 RMK AO2
VFR 18°C / 15°C 50º 8kt >10km - Broken Clouds 11000ft - KTPF 161015Z AUTO 05008KT 10SM BKN110 18/15 A3015 RMK AO2
VFR 18°C / 14°C 50º 9kt >10km - Overcast 11000ft - KTPF 160955Z AUTO 05009KT 10SM OVC110 18/14 A3015 RMK AO2
VFR 18°C / 15°C 60º 7kt >10km - Broken Clouds 11000ft - KTPF 160935Z AUTO 06007KT 10SM BKN110 18/15 A3016 RMK AO2
VFR 18°C / 15°C 60º 8kt >10km - Broken Clouds 11000ft - KTPF 160915Z AUTO 06008KT 10SM BKN110 18/15 A3015 RMK AO2
VFR 19°C / 15°C 50º 8kt >10km - Broken Clouds 11000ft - KTPF 160855Z AUTO 05008KT 10SM BKN110 19/15 A3015 RMK AO2
VFR 19°C / 15°C 50º 7kt >10km - Scattered Clouds 11000ft - KTPF 160835Z AUTO 05007KT 10SM SCT110 19/15 A3015 RMK AO2
VFR 19°C / 15°C 50º 8kt >10km - Clear - KTPF 160815Z AUTO 05008KT 10SM CLR 19/15 A3014 RMK AO2
VFR 19°C / 15°C 50º 7kt >10km - Clear - KTPF 160755Z AUTO 05007KT 10SM CLR 19/15 A3014 RMK AO2
VFR 19°C / 15°C 50º 8kt >10km - Clear - KTPF 160735Z AUTO 05008KT 10SM CLR 19/15 A3014 RMK AO2
VFR 20°C / 15°C 50º 8kt >10km - Clear - KTPF 160715Z AUTO 05008KT 10SM CLR 20/15 A3014 RMK AO2
VFR 20°C / 15°C 50º 7kt >10km - Scattered Clouds 12000ft - KTPF 160655Z AUTO 05007KT 10SM SCT120 20/15 A3014 RMK AO2
VFR 20°C / 15°C 50º 10kt >10km - Scattered Clouds 11000ft - KTPF 160635Z AUTO 05010KT 10SM SCT110 20/15 A3014 RMK AO2
VFR 20°C / 15°C 50º 8kt >10km - Scattered Clouds 11000ft - KTPF 160615Z AUTO 05008KT 10SM SCT110 20/15 A3014 RMK AO2
VFR 20°C / 15°C 50º 9kt >10km - Clear - KTPF 160555Z AUTO 05009KT 10SM CLR 20/15 A3014 RMK AO2
VFR 21°C / 15°C 50º 9kt >10km - Clear - KTPF 160535Z AUTO 05009KT 10SM CLR 21/15 A3015 RMK AO2
VFR 21°C / 15°C 50º 9kt >10km - Scattered Clouds 4100ft - KTPF 160515Z AUTO 05009KT 10SM SCT041 SCT050 SCT120 21/15 A3015 RMK AO2
VFR 21°C / 15°C 50º 8kt >10km - Scattered Clouds 4300ft - KTPF 160455Z AUTO 05008KT 10SM SCT043 SCT050 SCT120 21/15 A3016 RMK AO2
VFR 21°C / 15°C 50º 7kt >10km - Clear - KTPF 160435Z AUTO 05007KT 10SM CLR 21/15 A3016 RMK AO2

VFR

21°C / 14°C

[Víc]
Vítr 60º 9kt
Viditelnost >10km
Počasí -
Oblaky Broken Clouds 11000ft
Tlak
Změna -
Nezpracované KTPF 161215Z AUTO 06009KT 10SM BKN110 21/14 A3019 RMK AO2

VFR

20°C / 14°C

[Víc]
Vítr 60º 10kt
Viditelnost >10km
Počasí -
Oblaky Overcast 11000ft
Tlak
Změna -
Nezpracované KTPF 161155Z AUTO 06010KT 10SM OVC110 20/14 A3018 RMK AO2

VFR

20°C / 14°C

[Víc]
Vítr 50º 10kt
Viditelnost >10km
Počasí -
Oblaky Overcast 11000ft
Tlak
Změna -
Nezpracované KTPF 161135Z AUTO 05010KT 10SM OVC110 20/14 A3018 RMK AO2

VFR

19°C / 14°C

[Víc]
Vítr 50º 8kt
Viditelnost >10km
Počasí -
Oblaky Overcast 11000ft
Tlak
Změna -
Nezpracované KTPF 161115Z AUTO 05008KT 10SM OVC110 19/14 A3017 RMK AO2

VFR

18°C / 14°C

[Víc]
Vítr 50º 8kt
Viditelnost >10km
Počasí -
Oblaky Overcast 11000ft
Tlak
Změna -
Nezpracované KTPF 161055Z AUTO 05008KT 10SM OVC110 18/14 A3016 RMK AO2

VFR

18°C / 14°C

[Víc]
Vítr 60º 10kt
Viditelnost >10km
Počasí -
Oblaky Broken Clouds 12000ft
Tlak
Změna -
Nezpracované KTPF 161035Z AUTO 06010KT 10SM BKN120 18/14 A3015 RMK AO2

VFR

18°C / 15°C

[Víc]
Vítr 50º 8kt
Viditelnost >10km
Počasí -
Oblaky Broken Clouds 11000ft
Tlak
Změna -
Nezpracované KTPF 161015Z AUTO 05008KT 10SM BKN110 18/15 A3015 RMK AO2

VFR

18°C / 14°C

[Víc]
Vítr 50º 9kt
Viditelnost >10km
Počasí -
Oblaky Overcast 11000ft
Tlak
Změna -
Nezpracované KTPF 160955Z AUTO 05009KT 10SM OVC110 18/14 A3015 RMK AO2

VFR

18°C / 15°C

[Víc]
Vítr 60º 7kt
Viditelnost >10km
Počasí -
Oblaky Broken Clouds 11000ft
Tlak
Změna -
Nezpracované KTPF 160935Z AUTO 06007KT 10SM BKN110 18/15 A3016 RMK AO2

VFR

18°C / 15°C

[Víc]
Vítr 60º 8kt
Viditelnost >10km
Počasí -
Oblaky Broken Clouds 11000ft
Tlak
Změna -
Nezpracované KTPF 160915Z AUTO 06008KT 10SM BKN110 18/15 A3015 RMK AO2

VFR

19°C / 15°C

[Víc]
Vítr 50º 8kt
Viditelnost >10km
Počasí -
Oblaky Broken Clouds 11000ft
Tlak
Změna -
Nezpracované KTPF 160855Z AUTO 05008KT 10SM BKN110 19/15 A3015 RMK AO2

VFR

19°C / 15°C

[Víc]
Vítr 50º 7kt
Viditelnost >10km
Počasí -
Oblaky Scattered Clouds 11000ft
Tlak
Změna -
Nezpracované KTPF 160835Z AUTO 05007KT 10SM SCT110 19/15 A3015 RMK AO2

VFR

19°C / 15°C

[Víc]
Vítr 50º 8kt
Viditelnost >10km
Počasí -
Oblaky Clear
Tlak
Změna -
Nezpracované KTPF 160815Z AUTO 05008KT 10SM CLR 19/15 A3014 RMK AO2

VFR

19°C / 15°C

[Víc]
Vítr 50º 7kt
Viditelnost >10km
Počasí -
Oblaky Clear
Tlak
Změna -
Nezpracované KTPF 160755Z AUTO 05007KT 10SM CLR 19/15 A3014 RMK AO2

VFR

19°C / 15°C

[Víc]
Vítr 50º 8kt
Viditelnost >10km
Počasí -
Oblaky Clear
Tlak
Změna -
Nezpracované KTPF 160735Z AUTO 05008KT 10SM CLR 19/15 A3014 RMK AO2

VFR

20°C / 15°C

[Víc]
Vítr 50º 8kt
Viditelnost >10km
Počasí -
Oblaky Clear
Tlak
Změna -
Nezpracované KTPF 160715Z AUTO 05008KT 10SM CLR 20/15 A3014 RMK AO2

VFR

20°C / 15°C

[Víc]
Vítr 50º 7kt
Viditelnost >10km
Počasí -
Oblaky Scattered Clouds 12000ft
Tlak
Změna -
Nezpracované KTPF 160655Z AUTO 05007KT 10SM SCT120 20/15 A3014 RMK AO2

VFR

20°C / 15°C

[Víc]
Vítr 50º 10kt
Viditelnost >10km
Počasí -
Oblaky Scattered Clouds 11000ft
Tlak
Změna -
Nezpracované KTPF 160635Z AUTO 05010KT 10SM SCT110 20/15 A3014 RMK AO2

VFR

20°C / 15°C

[Víc]
Vítr 50º 8kt
Viditelnost >10km
Počasí -
Oblaky Scattered Clouds 11000ft
Tlak
Změna -
Nezpracované KTPF 160615Z AUTO 05008KT 10SM SCT110 20/15 A3014 RMK AO2

VFR

20°C / 15°C

[Víc]
Vítr 50º 9kt
Viditelnost >10km
Počasí -
Oblaky Clear
Tlak
Změna -
Nezpracované KTPF 160555Z AUTO 05009KT 10SM CLR 20/15 A3014 RMK AO2

VFR

21°C / 15°C

[Víc]
Vítr 50º 9kt
Viditelnost >10km
Počasí -
Oblaky Clear
Tlak
Změna -
Nezpracované KTPF 160535Z AUTO 05009KT 10SM CLR 21/15 A3015 RMK AO2

VFR

21°C / 15°C

[Víc]
Vítr 50º 9kt
Viditelnost >10km
Počasí -
Oblaky Scattered Clouds 4100ft
Tlak
Změna -
Nezpracované KTPF 160515Z AUTO 05009KT 10SM SCT041 SCT050 SCT120 21/15 A3015 RMK AO2

VFR

21°C / 15°C

[Víc]
Vítr 50º 8kt
Viditelnost >10km
Počasí -
Oblaky Scattered Clouds 4300ft
Tlak
Změna -
Nezpracované KTPF 160455Z AUTO 05008KT 10SM SCT043 SCT050 SCT120 21/15 A3016 RMK AO2

VFR

21°C / 15°C

[Víc]
Vítr 50º 7kt
Viditelnost >10km
Počasí -
Oblaky Clear
Tlak
Změna -
Nezpracované KTPF 160435Z AUTO 05007KT 10SM CLR 21/15 A3016 RMK AO2

Aktuální snímky ze satelitu pro Tampa, Spojené státy americké

Značka polohy je umístěna na Tampa. [Víc]

Satelitní snímek v reálném čase kombinuje viditelné světlo během dne s infračerveným zářením během noci. V noci není obraz tmavý, protože infračervené záření dokáže detekovat teplotní rozdíly. Nízká oblačnost a mlha se bohužel těžko odlišují od pozemních teplot, a proto mohou být během noci téměř neviditelné. Satelitní snímky z Meteosatu pro Evropu jsou aktualizovány v reálném čase každých 5 minut. Snímky z GOES-16/GOES-17 (Severní a Jižní Amerika) a Himawari (Asie) jsou aktualizovány) každých 10 minut.

Radar a krátkodobá předpověď srážek pro Tampa

Značka lokality je umístněna na Tampa. Tato animace ukazuje srážky zaznamenané radarem za poslední hodinu a také 1h předpověď. Mrholení nebo slabé sněžení mohou být pro radar neviditelné. Intenzita srážek používá barevní kód od světle modré po tmavě fialovou.